GPS BIIF-10 (PRN 08)

Last updated on Thu Jul 03 2025 00:03:14 GMT+0000 (Coordinated Universal Time)

1 40730U 15033A 25183.22203271 -.00000073 00000+0 00000+0 0 9993 2 40730 54.2643 281.4972 0104038 25.2142 335.3253 2.00574157 72975
UTC large
Height (km)
Speed (km/s)
/
Latitude / Longitude
Inclination (degrees)
Orbital Period (minutes)
Azimuth
Elevation
Range (km)
Doppler Factor

Next 0 passes for location: London (51.5072 / 0.1276)

Sorry there are no passes over London.